Location: Unspecified
(50.1700°N, 6.8600°E)
Time: 15:16:44
(UTC+00:00)

Cosmos 1992 Rocket - Pass Details

Date: 24 January 2019
Orbit: 758 x 767 km, 74.0° (Epoch: 17 February)

Event Time Altitude Azimuth Distance (km) Brightness Sun altitude
Exits shadow 05:03:25 18° 340° (NNW) 1,836 5.7 -21.2°
Maximum altitude 05:07:26 78° 65° (ENE) 788 4.1 -20.5°
Drops below altitude 10° 05:12:40 10° 152° (SSE) 2,301 6.9 -19.7°
Sets 05:15:02 0° 154° (SSE) 3,224 7.7 -19.3°
